{"data":{"norad_id":64354,"epoch":"2026-05-25T03:19:34.155264Z","epoch_age_seconds":63220,"freshness":"FRESH","line1":"1 64354U 25126L   26145.13858976  .00001997  00000+0  17505-3 0  9999","line2":"2 64354  70.0008 201.6837 0003767 265.1219  94.9510 14.98335096 52132","mean_motion":14.98335096,"eccentricity":0.0003767,"inclination_deg":70.0008,"raan_deg":201.6837,"arg_perigee_deg":265.1219,"mean_anomaly_deg":94.951,"bstar":0.00017505,"rev_number":5213,"period_min":96.106672255376,"perigee_km":569.42200030382,"apogee_km":574.65826375509,"semimajor_km":6950.1771320295,"source":"CELESTRAK","updated_at":"2026-05-25T13:38:20.402954Z"}}